VTVED VOBL-VOBL

Flight info

Callsign VTVED
Flight time 0h 27m
Altitude 4500
Route CIRCUITS
Aircraft BE60/L-SDFGRY/C

Departure

Time 2026-04-28 12:36
Airport Kempegowda International Airport Bengaluru (VOBL)

Arrival

Time 2026-04-28 13:04
Airport Kempegowda International Airport Bengaluru (VOBL)
Time Latitude Longitude Altitude Speed Heading
2026-04-28 12:28 13.20373 77.69454 3005 ft 0 kts
2026-04-28 12:31 13.20376 77.69455 3005 ft 3 kts 35°
2026-04-28 12:32 13.20349 77.69467 3005 ft 9 kts 181°
2026-04-28 12:32 13.20295 77.69430 3005 ft 14 kts 272°
2026-04-28 12:32 13.20332 77.69331 3005 ft 19 kts 353°
2026-04-28 12:32 13.20489 77.69333 3005 ft 26 kts
2026-04-28 12:33 13.20548 77.69222 3005 ft 19 kts 307°
2026-04-28 12:33 13.20616 77.69204 3005 ft 0 kts 356°
2026-04-28 12:34 13.20615 77.69204 3005 ft 0 kts 356°
2026-04-28 12:35 13.20620 77.69204 3005 ft 3 kts 358°
2026-04-28 12:35 13.20676 77.69211 3006 ft 13 kts 23°
2026-04-28 12:35 13.20715 77.69293 3005 ft 2 kts 89°
2026-04-28 12:35 13.20713 77.69369 3005 ft 40 kts 92°
2026-04-28 12:36 13.20708 77.69912 3005 ft 105 kts 89°
2026-04-28 12:36 13.20730 77.70740 3164 ft 123 kts 94°
2026-04-28 12:36 13.20713 77.71680 3504 ft 135 kts 95°
2026-04-28 12:36 13.20588 77.72653 3886 ft 142 kts 88°
2026-04-28 12:37 13.20477 77.73720 4103 ft 157 kts 88°
2026-04-28 12:37 13.20743 77.74709 4480 ft 135 kts 44°
2026-04-28 12:37 13.21612 77.75135 4213 ft 158 kts
2026-04-28 12:37 13.22705 77.75188 4373 ft 151 kts 354°
2026-04-28 12:38 13.23558 77.74570 4369 ft 162 kts 302°
2026-04-28 12:38 13.23823 77.73423 4388 ft 174 kts 275°
2026-04-28 12:38 13.23693 77.72178 4359 ft 173 kts 267°
2026-04-28 12:38 13.23518 77.70989 4381 ft 160 kts 265°
2026-04-28 12:39 13.23285 77.69876 4179 ft 158 kts 259°
2026-04-28 12:39 13.23260 77.69777 4160 ft 158 kts 259°
2026-04-28 12:40 13.23234 77.69678 4141 ft 157 kts 258°
2026-04-28 12:40 13.22891 77.68606 3896 ft 157 kts 253°
2026-04-28 12:40 13.22503 77.67596 3859 ft 145 kts 255°
2026-04-28 12:41 13.22158 77.66631 3679 ft 146 kts 255°
2026-04-28 12:41 13.21806 77.65654 3596 ft 137 kts 249°
2026-04-28 12:41 13.21257 77.65017 3530 ft 108 kts 215°
2026-04-28 12:41 13.20539 77.64708 3453 ft 115 kts 195°
2026-04-28 12:42 13.19738 77.64617 3424 ft 118 kts 183°
2026-04-28 12:42 13.18957 77.64806 3417 ft 114 kts 139°
2026-04-28 12:42 13.18719 77.65525 3440 ft 108 kts 79°
2026-04-28 12:42 13.18845 77.66294 3419 ft 112 kts 74°
2026-04-28 12:43 13.18991 77.67094 3368 ft 112 kts 85°
2026-04-28 12:43 13.18985 77.67896 3317 ft 112 kts 92°
2026-04-28 12:43 13.18969 77.68690 3129 ft 116 kts 88°
2026-04-28 12:43 13.18968 77.69466 3007 ft 95 kts 90°
2026-04-28 12:44 13.18964 77.70045 3006 ft 82 kts 90°
2026-04-28 12:44 13.18954 77.70819 3020 ft 126 kts 90°
2026-04-28 12:44 13.18942 77.71500 3189 ft 135 kts 90°
2026-04-28 12:47 13.18914 77.72133 3436 ft 137 kts 92°
2026-04-28 12:47 13.18854 77.73099 3833 ft 136 kts 92°
2026-04-28 12:47 13.18766 77.74050 4177 ft 137 kts 94°
2026-04-28 12:48 13.18899 77.75024 4401 ft 145 kts 65°
2026-04-28 12:48 13.19617 77.75795 4482 ft 160 kts 29°
2026-04-28 12:48 13.20701 77.76060 4589 ft 153 kts
2026-04-28 12:48 13.21716 77.76198 4619 ft 142 kts
2026-04-28 12:49 13.22713 77.76258 4552 ft 141 kts
2026-04-28 12:49 13.23675 77.76279 4491 ft 140 kts
2026-04-28 12:49 13.24625 77.76302 4429 ft 136 kts
2026-04-28 12:49 13.25565 77.76362 4416 ft 134 kts
2026-04-28 12:50 13.26498 77.76455 4417 ft 133 kts
2026-04-28 12:50 13.27406 77.76530 4474 ft 129 kts 353°
2026-04-28 12:50 13.28144 77.76009 4516 ft 136 kts 309°
2026-04-28 12:50 13.28394 77.75039 4460 ft 147 kts 273°
2026-04-28 12:51 13.28324 77.73979 4334 ft 147 kts 272°
2026-04-28 12:51 13.28201 77.73011 4201 ft 130 kts 270°
2026-04-28 12:51 13.28004 77.72112 4000 ft 118 kts 264°
2026-04-28 12:51 13.27800 77.71373 3997 ft 100 kts 267°
2026-04-28 12:52 13.27589 77.70718 3961 ft 98 kts 261°
2026-04-28 12:52 13.27364 77.70036 3912 ft 102 kts 265°
2026-04-28 12:52 13.27164 77.69340 3901 ft 101 kts 265°
2026-04-28 12:52 13.26951 77.68658 3928 ft 96 kts 269°
2026-04-28 12:53 13.26890 77.68008 3982 ft 90 kts 279°
2026-04-28 12:53 13.26906 77.67368 3981 ft 90 kts 281°
2026-04-28 12:53 13.26876 77.66708 3915 ft 99 kts 262°
2026-04-28 12:53 13.26689 77.66259 3827 ft 106 kts 244°
2026-04-28 12:54 13.25894 77.65656 3750 ft 109 kts 198°
2026-04-28 12:54 13.25159 77.65556 3741 ft 104 kts 182°
2026-04-28 12:54 13.24452 77.65560 3724 ft 100 kts 178°
2026-04-28 12:54 13.23787 77.65604 3729 ft 95 kts 175°
2026-04-28 12:55 13.23101 77.65682 3676 ft 101 kts 171°
2026-04-28 12:55 13.22406 77.65804 3648 ft 102 kts 168°
2026-04-28 12:55 13.21755 77.66060 3596 ft 102 kts 146°
2026-04-28 12:55 13.21261 77.66525 3600 ft 92 kts 129°
2026-04-28 12:56 13.20900 77.67043 3457 ft 89 kts 118°
2026-04-28 12:56 13.20700 77.67642 3241 ft 95 kts 92°
2026-04-28 12:56 13.20690 77.68282 3128 ft 88 kts 85°
2026-04-28 12:56 13.20661 77.68949 3219 ft 93 kts 113°
2026-04-28 12:57 13.20547 77.69563 3555 ft 86 kts 88°
2026-04-28 12:57 13.20493 77.70155 3951 ft 84 kts 91°
2026-04-28 12:57 13.20409 77.70756 4324 ft 62 kts 81°
2026-04-28 12:57 13.20381 77.71306 4435 ft 90 kts 82°
2026-04-28 12:58 13.20358 77.72004 4496 ft 120 kts 81°
2026-04-28 12:58 13.20352 77.72903 4677 ft 127 kts 85°
2026-04-28 12:58 13.20375 77.73863 4802 ft 135 kts 70°
2026-04-28 12:58 13.20900 77.74643 4810 ft 140 kts 33°
2026-04-28 12:59 13.21847 77.74793 4770 ft 148 kts 353°
2026-04-28 12:59 13.22897 77.74612 4738 ft 149 kts 349°
2026-04-28 12:59 13.23864 77.74414 4750 ft 138 kts 346°
2026-04-28 12:59 13.24583 77.73801 4655 ft 135 kts 294°
2026-04-28 13:00 13.24680 77.73168 4507 ft 145 kts 274°
2026-04-28 13:00 13.24450 77.71802 4324 ft 145 kts 267°
2026-04-28 13:00 13.24232 77.70796 4211 ft 142 kts 266°
2026-04-28 13:00 13.24126 77.69807 4134 ft 138 kts 264°
2026-04-28 13:01 13.24015 77.68828 3950 ft 137 kts 269°
2026-04-28 13:01 13.23989 77.67894 3857 ft 117 kts 276°
2026-04-28 13:01 13.24007 77.67114 3734 ft 106 kts 274°
2026-04-28 13:01 13.23816 77.66648 3729 ft 109 kts 229°
2026-04-28 13:02 13.22890 77.66348 3545 ft 110 kts 181°
2026-04-28 13:02 13.22390 77.66366 3514 ft 105 kts 178°
2026-04-28 13:02 13.21681 77.66432 3417 ft 100 kts 161°
2026-04-28 13:02 13.21188 77.66867 3362 ft 94 kts 134°
2026-04-28 13:03 13.20785 77.67406 3221 ft 99 kts 112°
2026-04-28 13:03 13.20715 77.68110 3159 ft 104 kts 86°
2026-04-28 13:03 13.20716 77.68837 3021 ft 95 kts 89°
2026-04-28 13:03 13.20713 77.69396 3005 ft 54 kts 91°
2026-04-28 13:04 13.20713 77.69736 3005 ft 42 kts 91°
2026-04-28 13:04 13.20708 77.70005 3005 ft 34 kts 90°
2026-04-28 13:04 13.20706 77.70221 3005 ft 30 kts 91°
2026-04-28 13:04 13.20681 77.70456 3005 ft 38 kts 107°
2026-04-28 13:05 13.20565 77.70679 3005 ft 32 kts 121°
2026-04-28 13:05 13.20529 77.70861 3005 ft 16 kts 97°
2026-04-28 13:05 13.20451 77.70872 3005 ft 11 kts 229°
2026-04-28 13:05 13.20446 77.70813 3005 ft 6 kts 272°
2026-04-28 13:06 13.20428 77.70804 3005 ft 3 kts 174°
2026-04-28 13:06 13.20401 77.70803 3005 ft 5 kts 181°
2026-04-28 13:06 13.20399 77.70803 3005 ft 0 kts 181°